• In Hungary
  • List of Countries
  • For 7 days
  • Water Temperature
  • Satellite Maps
  • Weather Map
  • News
  • Weather Widgets
  • user-avatar
    Login

    Hourly Weather Fagernes

    Today, 23 November, Thursday

    Time Temperature Precipitation Wind Pressure Humidity
    00:00 -2°C° 1.5 mm 1 mps 704 mmHg 97%
    01:00 -2°C° 1.5 mm 1 mps 703 mmHg 97%
    02:00 -1°C° 0.9 mm 1 mps 703 mmHg 97%
    03:00 -2°C° 0.9 mm 2 mps 702 mmHg 97%
    04:00 -1°C° 0.9 mm 2 mps 701 mmHg 97%
    05:00 0°C° 0.4 mm 3 mps 701 mmHg 97%
    06:00 +1°C° 0.4 mm 3 mps 700 mmHg 97%
    07:00 +1°C° 0.4 mm 4 mps 700 mmHg 98%
    08:00 +3°C° 0.6 mm 4 mps 699 mmHg 98%
    09:00 +3°C° 0.6 mm 5 mps 699 mmHg 99%
    10:00 +3°C° 0.6 mm 5 mps 699 mmHg 99%
    11:00 +4°C° 0.6 mm 6 mps 699 mmHg 99%
    12:00 +4°C° 0.6 mm 6 mps 699 mmHg 99%
    13:00 +4°C° 0.6 mm 6 mps 698 mmHg 99%
    14:00 +4°C° 0.2 mm 6 mps 698 mmHg 98%
    15:00 +4°C° 0.2 mm 6 mps 698 mmHg 97%
    16:00 +3°C° 0.2 mm 6 mps 698 mmHg 97%
    17:00 +2°C° 0.1 mm 6 mps 699 mmHg 92%
    18:00 +1°C° 0.1 mm 6 mps 699 mmHg 88%
    19:00 -2°C° 0.1 mm 6 mps 700 mmHg 83%
    20:00 -1°C° 0.1 mm 6 mps 701 mmHg 83%
    21:00 -1°C° 0.1 mm 6 mps 702 mmHg 83%
    22:00 -1°C° 0.1 mm 6 mps 703 mmHg 83%
    23:00 -1°C° 0 mm 5 mps 704 mmHg 85%

    Tomorrow, 24 November, Friday

    Time Temperature Precipitation Wind Pressure Humidity
    00:00 -3°C° 0 mm 4 mps 704 mmHg 87%
    01:00 -4°C° 0 mm 3 mps 705 mmHg 89%
    02:00 -4°C° 0 mm 3 mps 705 mmHg 90%
    03:00 -4°C° 0 mm 3 mps 706 mmHg 90%
    04:00 -3°C° 0 mm 2 mps 706 mmHg 91%
    05:00 -3°C° 0.1 mm 2 mps 707 mmHg 90%
    06:00 -3°C° 0.1 mm 2 mps 708 mmHg 90%
    07:00 -5°C° 0.1 mm 3 mps 708 mmHg 89%
    08:00 -5°C° 0 mm 3 mps 709 mmHg 89%
    09:00 -5°C° 0 mm 3 mps 710 mmHg 89%
    10:00 -5°C° 0 mm 3 mps 710 mmHg 88%
    11:00 -5°C° 0 mm 3 mps 710 mmHg 87%
    12:00 -4°C° 0 mm 4 mps 711 mmHg 86%
    13:00 -3°C° 0 mm 4 mps 711 mmHg 85%
    14:00 -4°C° 0 mm 4 mps 711 mmHg 86%
    15:00 -5°C° 0 mm 3 mps 711 mmHg 87%
    16:00 -5°C° 0 mm 3 mps 711 mmHg 89%
    17:00 -6°C° 0 mm 3 mps 711 mmHg 89%
    18:00 -6°C° 0 mm 3 mps 712 mmHg 90%
    19:00 -5°C° 0 mm 2 mps 712 mmHg 91%
    20:00 -5°C° 0 mm 2 mps 712 mmHg 91%
    21:00 -5°C° 0 mm 2 mps 712 mmHg 91%
    22:00 -5°C° 0 mm 2 mps 713 mmHg 91%
    23:00 -6°C° 0 mm 2 mps 713 mmHg 92%

    Day after tomorrow, 25 November, Saturday

    Time Temperature Precipitation Wind Pressure Humidity
    00:00 -6°C° 0 mm 2 mps 713 mmHg 92%
    01:00 -7°C° 0 mm 2 mps 713 mmHg 92%
    02:00 -7°C° 0 mm 2 mps 713 mmHg 92%
    03:00 -8°C° 0 mm 2 mps 713 mmHg 92%
    04:00 -8°C° 0 mm 2 mps 713 mmHg 93%
    05:00 -8°C° 0 mm 2 mps 713 mmHg 93%
    06:00 -8°C° 0 mm 2 mps 713 mmHg 93%
    07:00 -8°C° 0 mm 2 mps 713 mmHg 93%
    08:00 -8°C° 0 mm 2 mps 713 mmHg 93%
    09:00 -8°C° 0 mm 2 mps 713 mmHg 93%
    10:00 -7°C° 0 mm 2 mps 713 mmHg 93%
    11:00 -7°C° 0 mm 2 mps 713 mmHg 92%
    12:00 -6°C° 0 mm 2 mps 713 mmHg 92%
    13:00 -5°C° 0 mm 2 mps 713 mmHg 92%
    14:00 -6°C° 0 mm 3 mps 713 mmHg 92%
    15:00 -6°C° 0 mm 3 mps 713 mmHg 93%
    16:00 -7°C° 0 mm 4 mps 713 mmHg 93%
    17:00 -7°C° 0 mm 4 mps 712 mmHg 92%
    18:00 -7°C° 0 mm 4 mps 712 mmHg 92%
    19:00 -7°C° 0 mm 4 mps 712 mmHg 91%
    20:00 -5°C° 0.1 mm 4 mps 712 mmHg 92%
    21:00 -5°C° 0.1 mm 4 mps 712 mmHg 92%
    22:00 -4°C° 0.1 mm 4 mps 712 mmHg 92%
    23:00 -4°C° 0.1 mm 4 mps 712 mmHg 92%

    26 November, Sunday

    Time Temperature Precipitation Wind Pressure Humidity
    00:00 -4°C° 0.1 mm 4 mps 713 mmHg 92%
    01:00 -4°C° 0.1 mm 3 mps 713 mmHg 92%
    02:00 -5°C° 0 mm 3 mps 712 mmHg 93%
    03:00 -5°C° 0 mm 3 mps 712 mmHg 94%
    04:00 -5°C° 0 mm 2 mps 712 mmHg 96%
    05:00 -5°C° 0 mm 2 mps 712 mmHg 96%
    06:00 -4°C° 0 mm 2 mps 712 mmHg 96%
    07:00 -4°C° 0 mm 2 mps 712 mmHg 97%
    08:00 -3°C° 0.1 mm 2 mps 712 mmHg 97%
    09:00 -3°C° 0.1 mm 2 mps 712 mmHg 97%
    10:00 -2°C° 0.1 mm 2 mps 712 mmHg 97%
    11:00 -2°C° 0.2 mm 2 mps 712 mmHg 97%
    12:00 -1°C° 0.2 mm 2 mps 712 mmHg 96%
    13:00 -1°C° 0.2 mm 2 mps 712 mmHg 96%
    14:00 +1°C° 0.1 mm 1 mps 712 mmHg 97%
    15:00 0°C° 0.1 mm 1 mps 712 mmHg 97%
    16:00 0°C° 0.1 mm 1 mps 712 mmHg 98%
    17:00 0°C° 0.1 mm 1 mps 712 mmHg 97%
    18:00 -1°C° 0.1 mm 1 mps 712 mmHg 97%
    19:00 -1°C° 0.1 mm 1 mps 712 mmHg 96%
    20:00 -2°C° 0 mm 1 mps 712 mmHg 95%
    21:00 -2°C° 0 mm 1 mps 713 mmHg 94%
    22:00 -5°C° 0 mm 2 mps 713 mmHg 93%
    23:00 -5°C° 0 mm 2 mps 713 mmHg 92%

    27 November, Monday

    Time Temperature Precipitation Wind Pressure Humidity
    00:00 -6°C° 0 mm 2 mps 713 mmHg 91%
    01:00 -6°C° 0 mm 2 mps 713 mmHg 90%
    02:00 -6°C° 0 mm 2 mps 714 mmHg 90%
    03:00 -7°C° 0 mm 2 mps 714 mmHg 89%
    04:00 -7°C° 0 mm 2 mps 714 mmHg 89%
    05:00 -7°C° 0 mm 2 mps 714 mmHg 89%
    06:00 -7°C° 0 mm 2 mps 715 mmHg 89%
    07:00 -8°C° 0 mm 2 mps 715 mmHg 88%
    08:00 -8°C° 0 mm 2 mps 715 mmHg 88%
    09:00 -8°C° 0 mm 2 mps 715 mmHg 88%
    10:00 -8°C° 0 mm 2 mps 716 mmHg 88%
    11:00 -7°C° 0 mm 2 mps 716 mmHg 87%
    12:00 -7°C° 0 mm 2 mps 716 mmHg 86%
    13:00 -4°C° 0 mm 1 mps 716 mmHg 85%
    14:00 -7°C° 0 mm 2 mps 716 mmHg 83%
    15:00 -8°C° 0 mm 2 mps 716 mmHg 82%
    16:00 -9°C° 0 mm 2 mps 716 mmHg 80%
    17:00 -8°C° 0 mm 1 mps 716 mmHg 78%
    18:00 -8°C° 0 mm 1 mps 717 mmHg 76%
    19:00 -9°C° 0 mm 1 mps 717 mmHg 75%
    20:00 -9°C° 0 mm 1 mps 717 mmHg 73%
    21:00 -9°C° 0 mm 1 mps 717 mmHg 72%
    22:00 -9°C° 0 mm 1 mps 717 mmHg 71%
    23:00 -9°C° 0 mm 1 mps 717 mmHg 71%

    28 November, Tuesday

    Time Temperature Precipitation Wind Pressure Humidity
    00:00 -9°C° 0 mm 1 mps 717 mmHg 70%
    01:00 -9°C° 0 mm 1 mps 717 mmHg 70%
    02:00 -9°C° 0 mm 1 mps 717 mmHg 70%
    03:00 -9°C° 0 mm 1 mps 717 mmHg 71%
    04:00 -10°C° 0 mm 1 mps 717 mmHg 71%
    05:00 -10°C° 0 mm 1 mps 717 mmHg 72%
    06:00 -10°C° 0 mm 1 mps 717 mmHg 73%
    07:00 -10°C° 0 mm 1 mps 717 mmHg 74%
    08:00 -9°C° 0 mm 1 mps 718 mmHg 75%
    09:00 -10°C° 0 mm 2 mps 718 mmHg 76%
    10:00 -10°C° 0 mm 2 mps 718 mmHg 78%
    11:00 -9°C° 0 mm 2 mps 718 mmHg 79%
    12:00 -8°C° 0 mm 2 mps 718 mmHg 81%
    13:00 -7°C° 0 mm 2 mps 718 mmHg 83%
    14:00 -7°C° 0 mm 2 mps 719 mmHg 85%
    15:00 -8°C° 0 mm 2 mps 719 mmHg 86%
    16:00 -8°C° 0 mm 2 mps 719 mmHg 88%
    17:00 -8°C° 0 mm 2 mps 719 mmHg 89%
    18:00 -8°C° 0 mm 2 mps 719 mmHg 90%
    19:00 -8°C° 0 mm 2 mps 720 mmHg 90%
    20:00 -7°C° 0.1 mm 2 mps 720 mmHg 90%
    21:00 -7°C° 0.1 mm 2 mps 720 mmHg 90%
    22:00 -7°C° 0.1 mm 2 mps 720 mmHg 90%
    23:00 -7°C° 0.1 mm 2 mps 720 mmHg 90%
    Show more